Time,TemperatureF,DewpointF,PressureIn,WindDirection,WindDirectionDegrees,WindSpeedMPH,WindSpeedGustMPH,Humidity,HourlyPrecipIn,Conditions,Clouds,dailyrainin,SoftwareType,DateUTC
2013-11-12 00:05:00,27.3,26.1,30.11,WSW,258,5.0,16.0,95,0.00,,,0.00,Wunderground v.1.15,2013-11-12 05:05:00,
2013-11-12 00:10:00,27.4,26.2,30.11,West,273,4.0,16.0,95,0.00,,,0.00,Wunderground v.1.15,2013-11-12 05:10:00,
2013-11-12 00:15:00,27.5,26.3,30.11,West,269,4.0,16.0,95,0.00,,,0.00,Wunderground v.1.15,2013-11-12 05:15:00,
2013-11-12 00:20:00,27.4,26.2,30.11,West,266,4.0,16.0,95,0.00,,,0.00,Wunderground v.1.15,2013-11-12 05:20:00,
2013-11-12 00:25:00,27.4,25.9,30.11,West,277,5.0,16.0,94,0.00,,,0.00,Wunderground v.1.15,2013-11-12 05:25:00,
2013-11-12 00:30:00,27.5,25.7,30.12,West,277,6.0,16.0,93,0.00,,,0.00,Wunderground v.1.15,2013-11-12 05:30:00,
2013-11-12 00:40:00,27.5,25.7,30.12,WNW,291,6.0,6.0,93,0.00,,,0.00,Wunderground v.1.15,2013-11-12 05:40:00,
2013-11-12 00:45:00,27.5,25.5,30.12,WNW,290,5.0,16.0,92,0.00,,,0.00,Wunderground v.1.15,2013-11-12 05:45:00,
2013-11-12 00:50:00,27.5,25.5,30.12,West,281,5.0,16.0,92,0.00,,,0.00,Wunderground v.1.15,2013-11-12 05:50:00,
2013-11-12 00:55:00,27.4,25.4,30.12,West,281,4.0,16.0,92,0.00,,,0.00,Wunderground v.1.15,2013-11-12 05:55:00,
2013-11-12 01:00:00,27.4,25.1,30.12,West,281,5.0,16.0,91,0.00,,,0.00,Wunderground v.1.15,2013-11-12 06:00:00,
2013-11-12 01:05:00,27.4,25.1,30.12,WNW,290,6.0,16.0,91,0.00,,,0.00,Wunderground v.1.15,2013-11-12 06:05:00,
2013-11-12 01:10:00,27.3,25.0,30.13,WNW,288,6.0,16.0,91,0.00,,,0.00,Wunderground v.1.15,2013-11-12 06:10:00,
2013-11-12 01:20:00,27.1,25.1,30.13,WNW,288,4.0,4.0,92,0.00,,,0.00,Wunderground v.1.15,2013-11-12 06:20:00,
2013-11-12 01:25:00,27.0,25.0,30.13,WNW,283,3.0,16.0,92,0.00,,,0.00,Wunderground v.1.15,2013-11-12 06:25:00,
2013-11-12 01:30:00,27.0,25.0,30.13,WNW,296,3.0,3.0,92,0.00,,,0.00,Wunderground v.1.15,2013-11-12 06:30:00,
2013-11-12 01:35:00,26.9,24.9,30.14,WNW,285,3.0,16.0,92,0.00,,,0.00,Wunderground v.1.15,2013-11-12 06:35:00,
2013-11-12 01:40:00,26.9,24.9,30.14,WNW,296,3.0,3.0,92,0.00,,,0.00,Wunderground v.1.15,2013-11-12 06:40:00,
2013-11-12 01:45:00,26.8,24.8,30.14,NW,308,2.0,16.0,92,0.00,,,0.00,Wunderground v.1.15,2013-11-12 06:45:00,
2013-11-12 01:55:00,26.7,24.4,30.14,WNW,292,3.0,16.0,91,0.00,,,0.00,Wunderground v.1.15,2013-11-12 06:55:00,
2013-11-12 02:00:00,26.7,24.4,30.14,WNW,294,3.0,3.0,91,0.00,,,0.00,Wunderground v.1.15,2013-11-12 07:00:00,
2013-11-12 02:05:00,26.5,24.2,30.14,WNW,301,2.0,16.0,91,0.00,,,0.00,Wunderground v.1.15,2013-11-12 07:05:00,
2013-11-12 02:10:00,26.5,24.0,30.15,WNW,294,2.0,16.0,90,0.00,,,0.00,Wunderground v.1.15,2013-11-12 07:10:00,
2013-11-12 02:15:00,26.4,23.9,30.15,WNW,298,2.0,16.0,90,0.00,,,0.00,Wunderground v.1.15,2013-11-12 07:15:00,
2013-11-12 02:20:00,26.4,23.9,30.15,WNW,303,2.0,16.0,90,0.00,,,0.00,Wunderground v.1.15,2013-11-12 07:20:00,
2013-11-12 02:25:00,26.2,23.7,30.15,WNW,302,3.0,16.0,90,0.00,,,0.00,Wunderground v.1.15,2013-11-12 07:25:00,
2013-11-12 02:35:00,26.1,23.6,30.15,NW,312,2.0,16.0,90,0.00,,,0.00,Wunderground v.1.15,2013-11-12 07:35:00,
2013-11-12 02:40:00,26.0,23.5,30.16,WNW,294,2.0,16.0,90,0.00,,,0.00,Wunderground v.1.15,2013-11-12 07:40:00,
2013-11-12 02:45:00,26.0,23.2,30.16,WNW,302,2.0,16.0,89,0.00,,,0.00,Wunderground v.1.15,2013-11-12 07:45:00,
2013-11-12 02:50:00,25.9,23.1,30.16,WNW,294,3.0,3.0,89,0.00,,,0.00,Wunderground v.1.15,2013-11-12 07:50:00,
2013-11-12 02:55:00,25.9,23.4,30.16,West,278,2.0,16.0,90,0.00,,,0.00,Wunderground v.1.15,2013-11-12 07:55:00,
2013-11-12 03:00:00,25.8,23.3,30.16,WNW,293,2.0,2.0,90,0.00,,,0.00,Wunderground v.1.15,2013-11-12 08:00:00,
2013-11-12 03:05:00,25.7,22.9,30.16,West,281,2.0,16.0,89,0.00,,,0.00,Wunderground v.1.15,2013-11-12 08:05:00,
2013-11-12 03:15:00,25.5,23.0,30.17,WNW,284,2.0,16.0,90,0.00,,,0.00,Wunderground v.1.15,2013-11-12 08:15:00,
2013-11-12 03:20:00,25.4,22.9,30.17,WNW,298,3.0,16.0,90,0.00,,,0.00,Wunderground v.1.15,2013-11-12 08:20:00,
2013-11-12 03:25:00,25.4,22.9,30.17,WNW,289,3.0,16.0,90,0.00,,,0.00,Wunderground v.1.15,2013-11-12 08:25:00,
2013-11-12 03:30:00,25.3,22.8,30.17,West,275,3.0,3.0,90,0.00,,,0.00,Wunderground v.1.15,2013-11-12 08:30:00,
2013-11-12 03:35:00,25.2,22.7,30.17,WNW,297,4.0,6.0,90,0.00,,,0.00,Wunderground v.1.15,2013-11-12 08:35:00,
2013-11-12 03:40:00,25.2,22.7,30.18,WNW,285,4.0,4.0,90,0.00,,,0.00,Wunderground v.1.15,2013-11-12 08:40:00,
2013-11-12 03:50:00,25.0,22.5,30.17,West,275,4.0,16.0,90,0.00,,,0.00,Wunderground v.1.15,2013-11-12 08:50:00,
2013-11-12 03:55:00,25.0,22.5,30.18,West,279,5.0,16.0,90,0.00,,,0.00,Wunderground v.1.15,2013-11-12 08:55:00,
2013-11-12 04:00:00,25.1,22.6,30.18,WNW,282,6.0,6.0,90,0.00,,,0.00,Wunderground v.1.15,2013-11-12 09:00:00,
2013-11-12 04:05:00,25.0,22.2,30.18,NW,306,5.0,16.0,89,0.00,,,0.00,Wunderground v.1.15,2013-11-12 09:05:00,
2013-11-12 04:10:00,24.9,22.1,30.18,NW,304,5.0,5.0,89,0.00,,,0.00,Wunderground v.1.15,2013-11-12 09:10:00,
2013-11-12 04:15:00,24.8,22.0,30.19,NW,306,5.0,6.0,89,0.00,,,0.00,Wunderground v.1.15,2013-11-12 09:15:00,
2013-11-12 04:20:00,24.8,22.0,30.19,West,279,5.0,16.0,89,0.00,,,0.00,Wunderground v.1.15,2013-11-12 09:20:00,
2013-11-12 04:25:00,24.7,21.9,30.19,WNW,292,5.0,16.0,89,0.00,,,0.00,Wunderground v.1.15,2013-11-12 09:25:00,
2013-11-12 04:35:00,24.4,21.6,30.20,WNW,294,4.0,16.0,89,0.00,,,0.00,Wunderground v.1.15,2013-11-12 09:35:00,
2013-11-12 04:40:00,24.3,21.8,30.20,West,281,4.0,16.0,90,0.00,,,0.00,Wunderground v.1.15,2013-11-12 09:40:00,
2013-11-12 04:45:00,24.4,21.9,30.20,WNW,287,5.0,16.0,90,0.00,,,0.00,Wunderground v.1.15,2013-11-12 09:45:00,
2013-11-12 04:50:00,24.5,22.0,30.21,WNW,300,5.0,16.0,90,0.00,,,0.00,Wunderground v.1.15,2013-11-12 09:50:00,
2013-11-12 04:55:00,24.5,21.7,30.21,WNW,296,6.0,16.0,89,0.00,,,0.00,Wunderground v.1.15,2013-11-12 09:55:00,
2013-11-12 05:00:00,24.6,21.8,30.21,WNW,302,6.0,6.0,89,0.00,,,0.00,Wunderground v.1.15,2013-11-12 10:00:00,
2013-11-12 05:05:00,24.4,21.6,30.21,WNW,292,5.0,16.0,89,0.00,,,0.00,Wunderground v.1.15,2013-11-12 10:05:00,
2013-11-12 05:15:00,24.0,21.2,30.22,WNW,284,5.0,16.0,89,0.00,,,0.00,Wunderground v.1.15,2013-11-12 10:15:00,
2013-11-12 05:20:00,23.9,21.1,30.22,WNW,284,5.0,16.0,89,0.00,,,0.00,Wunderground v.1.15,2013-11-12 10:20:00,
2013-11-12 05:25:00,23.9,21.1,30.21,WNW,286,5.0,16.0,89,0.00,,,0.00,Wunderground v.1.15,2013-11-12 10:25:00,
2013-11-12 05:30:00,23.7,20.9,30.22,WNW,290,6.0,6.0,89,0.00,,,0.00,Wunderground v.1.15,2013-11-12 10:30:00,
2013-11-12 05:35:00,23.6,20.8,30.22,WNW,297,5.0,7.0,89,0.00,,,0.00,Wunderground v.1.15,2013-11-12 10:35:00,
2013-11-12 05:40:00,23.5,20.7,30.22,WNW,286,5.0,5.0,89,0.00,,,0.00,Wunderground v.1.15,2013-11-12 10:40:00,
2013-11-12 05:50:00,23.3,20.5,30.22,WNW,301,5.0,16.0,89,0.00,,,0.00,Wunderground v.1.15,2013-11-12 10:50:00,
2013-11-12 05:55:00,23.4,20.9,30.23,WNW,300,5.0,16.0,90,0.00,,,0.00,Wunderground v.1.15,2013-11-12 10:55:00,
2013-11-12 06:00:00,23.4,20.9,30.23,WNW,289,4.0,16.0,90,0.00,,,0.00,Wunderground v.1.15,2013-11-12 11:00:00,
2013-11-12 06:05:00,23.3,20.8,30.23,WNW,297,4.0,16.0,90,0.00,,,0.00,Wunderground v.1.15,2013-11-12 11:05:00,
2013-11-12 06:10:00,23.3,20.8,30.23,NW,307,4.0,16.0,90,0.00,,,0.00,Wunderground v.1.15,2013-11-12 11:10:00,
2013-11-12 06:15:00,23.4,20.9,30.23,NW,312,5.0,16.0,90,0.00,,,0.00,Wunderground v.1.15,2013-11-12 11:15:00,
2013-11-12 06:20:00,23.4,20.9,30.24,WNW,291,5.0,5.0,90,0.00,,,0.00,Wunderground v.1.15,2013-11-12 11:20:00,
2013-11-12 06:30:00,23.1,20.6,30.24,West,278,4.0,4.0,90,0.00,,,0.00,Wunderground v.1.15,2013-11-12 11:30:00,
2013-11-12 06:35:00,23.1,20.6,30.24,WNW,297,4.0,16.0,90,0.00,,,0.00,Wunderground v.1.15,2013-11-12 11:35:00,
2013-11-12 06:40:00,23.0,20.8,30.25,WNW,291,4.0,16.0,91,0.00,,,0.00,Wunderground v.1.15,2013-11-12 11:40:00,
2013-11-12 06:45:00,23.1,20.9,30.25,WNW,296,4.0,16.0,91,0.00,,,0.00,Wunderground v.1.15,2013-11-12 11:45:00,
2013-11-12 06:50:00,23.1,20.9,30.25,WNW,296,4.0,16.0,91,0.00,,,0.00,Wunderground v.1.15,2013-11-12 11:50:00,
2013-11-12 06:55:00,23.1,20.9,30.25,NW,306,4.0,16.0,91,0.00,,,0.00,Wunderground v.1.15,2013-11-12 11:55:00,
2013-11-12 07:00:00,23.2,21.0,30.25,NW,304,5.0,5.0,91,0.00,,,0.00,Wunderground v.1.15,2013-11-12 12:00:00,
2013-11-12 07:10:00,23.2,21.0,30.26,WNW,290,5.0,16.0,91,0.00,,,0.00,Wunderground v.1.15,2013-11-12 12:10:00,
2013-11-12 07:15:00,23.3,21.1,30.27,NNW,329,5.0,16.0,91,0.00,,,0.00,Wunderground v.1.15,2013-11-12 12:15:00,
2013-11-12 07:20:00,23.3,21.1,30.27,NW,304,6.0,6.0,91,0.00,,,0.00,Wunderground v.1.15,2013-11-12 12:20:00,
2013-11-12 07:25:00,23.3,21.1,30.27,WNW,293,5.0,7.0,91,0.00,,,0.00,Wunderground v.1.15,2013-11-12 12:25:00,
2013-11-12 07:30:00,23.5,21.3,30.27,WNW,299,6.0,16.0,91,0.00,,,0.00,Wunderground v.1.15,2013-11-12 12:30:00,
2013-11-12 07:35:00,23.5,21.3,30.27,WNW,296,6.0,16.0,91,0.00,,,0.00,Wunderground v.1.15,2013-11-12 12:35:00,
2013-11-12 07:45:00,23.4,21.2,30.28,West,279,6.0,16.0,91,0.00,,,0.00,Wunderground v.1.15,2013-11-12 12:45:00,
2013-11-12 07:50:00,23.3,21.1,30.28,WNW,296,6.0,16.0,91,0.00,,,0.00,Wunderground v.1.15,2013-11-12 12:50:00,
2013-11-12 07:55:00,23.3,21.1,30.28,NW,311,6.0,16.0,91,0.00,,,0.00,Wunderground v.1.15,2013-11-12 12:55:00,
2013-11-12 08:00:00,23.3,21.1,30.28,WNW,294,6.0,16.0,91,0.00,,,0.00,Wunderground v.1.15,2013-11-12 13:00:00,
2013-11-12 08:05:00,23.4,21.4,30.29,NW,304,6.0,16.0,92,0.00,,,0.00,Wunderground v.1.15,2013-11-12 13:05:00,
2013-11-12 08:10:00,23.5,21.3,30.29,WNW,302,5.0,16.0,91,0.00,,,0.00,Wunderground v.1.15,2013-11-12 13:10:00,
2013-11-12 08:20:00,23.8,21.6,30.30,NW,323,5.0,5.0,91,0.00,,,0.00,Wunderground v.1.15,2013-11-12 13:20:00,
2013-11-12 08:25:00,23.8,21.6,30.30,West,281,5.0,10.0,91,0.00,,,0.00,Wunderground v.1.15,2013-11-12 13:25:00,
2013-11-12 08:30:00,23.8,21.6,30.30,NW,304,6.0,16.0,91,0.00,,,0.00,Wunderground v.1.15,2013-11-12 13:30:00,
2013-11-12 08:35:00,23.8,21.6,30.30,NW,305,3.0,16.0,91,0.00,,,0.00,Wunderground v.1.15,2013-11-12 13:35:00,
2013-11-12 08:40:00,23.7,21.2,30.31,NW,316,2.0,16.0,90,0.00,,,0.00,Wunderground v.1.15,2013-11-12 13:40:00,
2013-11-12 08:45:00,23.8,21.3,30.31,WNW,292,5.0,16.0,90,0.00,,,0.00,Wunderground v.1.15,2013-11-12 13:45:00,
2013-11-12 08:50:00,23.9,21.4,30.31,WNW,300,5.0,5.0,90,0.00,,,0.00,Wunderground v.1.15,2013-11-12 13:50:00,
2013-11-12 09:00:00,24.0,21.2,30.31,West,281,7.0,16.0,89,0.00,,,0.00,Wunderground v.1.15,2013-11-12 14:00:00,
2013-11-12 09:05:00,24.1,21.1,30.31,NW,311,7.0,16.0,88,0.00,,,0.00,Wunderground v.1.15,2013-11-12 14:05:00,
2013-11-12 09:10:00,24.1,21.3,30.31,WNW,301,6.0,6.0,89,0.00,,,0.00,Wunderground v.1.15,2013-11-12 14:10:00,
2013-11-12 09:15:00,24.2,21.4,30.31,WNW,295,9.0,9.0,89,0.00,,,0.00,Wunderground v.1.15,2013-11-12 14:15:00,
2013-11-12 09:20:00,24.3,21.5,30.31,NW,326,7.0,7.0,89,0.00,,,0.00,Wunderground v.1.15,2013-11-12 14:20:00,
2013-11-12 09:25:00,24.5,21.7,30.31,NW,316,7.0,16.0,89,0.00,,,0.00,Wunderground v.1.15,2013-11-12 14:25:00,
2013-11-12 09:35:00,24.6,21.8,30.32,NW,323,6.0,16.0,89,0.00,,,0.00,Wunderground v.1.15,2013-11-12 14:35:00,
2013-11-12 09:40:00,24.7,21.9,30.32,NNW,328,6.0,6.0,89,0.00,,,0.00,Wunderground v.1.15,2013-11-12 14:40:00,
2013-11-12 09:45:00,24.8,22.0,30.32,WSW,257,6.0,9.0,89,0.00,,,0.00,Wunderground v.1.15,2013-11-12 14:45:00,
2013-11-12 09:50:00,25.1,22.3,30.32,WNW,301,5.0,16.0,89,0.00,,,0.00,Wunderground v.1.15,2013-11-12 14:50:00,
2013-11-12 09:55:00,25.2,22.4,30.32,NW,310,7.0,16.0,89,0.00,,,0.00,Wunderground v.1.15,2013-11-12 14:55:00,
2013-11-12 10:00:00,25.2,22.1,30.32,NW,304,8.0,16.0,88,0.00,,,0.00,Wunderground v.1.15,2013-11-12 15:00:00,
2013-11-12 10:05:00,25.5,22.4,30.32,West,281,7.0,16.0,88,0.00,,,0.00,Wunderground v.1.15,2013-11-12 15:05:00,
2013-11-12 10:15:00,25.6,22.5,30.33,NW,313,8.0,16.0,88,0.00,,,0.00,Wunderground v.1.15,2013-11-12 15:15:00,
2013-11-12 10:20:00,25.6,22.3,30.33,NW,322,8.0,8.0,87,0.00,,,0.00,Wunderground v.1.15,2013-11-12 15:20:00,
2013-11-12 10:25:00,25.5,22.2,30.33,WNW,298,8.0,9.0,87,0.00,,,0.00,Wunderground v.1.15,2013-11-12 15:25:00,
2013-11-12 10:30:00,25.6,22.5,30.33,West,275,7.0,16.0,88,0.00,,,0.00,Wunderground v.1.15,2013-11-12 15:30:00,
2013-11-12 10:35:00,25.7,22.6,30.33,WNW,288,6.0,16.0,88,0.00,,,0.00,Wunderground v.1.15,2013-11-12 15:35:00,
2013-11-12 10:40:00,25.8,22.7,30.33,NW,312,8.0,8.0,88,0.00,,,0.00,Wunderground v.1.15,2013-11-12 15:40:00,
2013-11-12 10:50:00,26.1,22.8,30.33,NNW,337,6.0,6.0,87,0.00,,,0.00,Wunderground v.1.15,2013-11-12 15:50:00,
2013-11-12 10:55:00,26.1,22.5,30.33,WNW,303,6.0,16.0,86,0.00,,,0.00,Wunderground v.1.15,2013-11-12 15:55:00,
2013-11-12 11:00:00,26.2,22.6,30.33,West,267,7.0,16.0,86,0.00,,,0.00,Wunderground v.1.15,2013-11-12 16:00:00,
2013-11-12 11:05:00,26.5,22.6,30.33,WNW,282,8.0,16.0,85,0.00,,,0.00,Wunderground v.1.15,2013-11-12 16:05:00,
2013-11-12 11:10:00,26.6,22.7,30.33,NW,306,8.0,8.0,85,0.00,,,0.00,Wunderground v.1.15,2013-11-12 16:10:00,
2013-11-12 11:15:00,26.8,22.6,30.33,West,278,10.0,13.0,84,0.00,,,0.00,Wunderground v.1.15,2013-11-12 16:15:00,
2013-11-12 11:25:00,27.1,22.3,30.33,NNW,342,8.0,16.0,82,0.00,,,0.00,Wunderground v.1.15,2013-11-12 16:25:00,
2013-11-12 11:30:00,27.1,22.3,30.33,NW,305,7.0,16.0,82,0.00,,,0.00,Wunderground v.1.15,2013-11-12 16:30:00,
2013-11-12 11:35:00,27.3,23.1,30.33,WNW,293,6.0,16.0,84,0.00,,,0.00,Wunderground v.1.15,2013-11-12 16:35:00,
2013-11-12 11:40:00,27.2,22.7,30.33,NNW,331,7.0,16.0,83,0.00,,,0.00,Wunderground v.1.15,2013-11-12 16:40:00,
2013-11-12 11:45:00,27.2,22.4,30.33,WNW,288,9.0,16.0,82,0.00,,,0.00,Wunderground v.1.15,2013-11-12 16:45:00,
2013-11-12 11:50:00,27.1,22.0,30.32,WNW,294,10.0,16.0,81,0.00,,,0.00,Wunderground v.1.15,2013-11-12 16:50:00,
2013-11-12 11:55:00,27.2,22.1,30.32,WNW,293,10.0,16.0,81,0.00,,,0.00,Wunderground v.1.15,2013-11-12 16:55:00,
2013-11-12 12:00:00,27.6,22.5,30.32,WNW,297,9.0,9.0,81,0.00,,,0.00,Wunderground v.1.15,2013-11-12 17:00:00,
2013-11-12 12:10:00,27.9,21.9,30.32,WSW,258,7.0,16.0,78,0.00,,,0.00,Wunderground v.1.15,2013-11-12 17:10:00,
2013-11-12 12:15:00,28.0,22.6,30.32,West,277,8.0,16.0,80,0.00,,,0.00,Wunderground v.1.15,2013-11-12 17:15:00,
2013-11-12 12:20:00,27.9,22.2,30.32,WNW,288,9.0,16.0,79,0.00,,,0.00,Wunderground v.1.15,2013-11-12 17:20:00,
2013-11-12 12:25:00,27.7,22.9,30.32,WNW,296,9.0,16.0,82,0.00,,,0.00,Wunderground v.1.15,2013-11-12 17:25:00,
2013-11-12 12:30:00,27.8,23.0,30.32,NW,319,9.0,9.0,82,0.00,,,0.00,Wunderground v.1.15,2013-11-12 17:30:00,
2013-11-12 12:35:00,27.9,22.8,30.32,WNW,288,8.0,12.0,81,0.00,,,0.00,Wunderground v.1.15,2013-11-12 17:35:00,
2013-11-12 12:40:00,28.3,22.9,30.32,WNW,284,9.0,16.0,80,0.00,,,0.00,Wunderground v.1.15,2013-11-12 17:40:00,
2013-11-12 12:50:00,28.0,22.9,30.31,West,271,10.0,16.0,81,0.00,,,0.00,Wunderground v.1.15,2013-11-12 17:50:00,
2013-11-12 12:55:00,27.6,23.4,30.32,WNW,284,10.0,16.0,84,0.00,,,0.00,Wunderground v.1.15,2013-11-12 17:55:00,
2013-11-12 13:00:00,27.8,23.9,30.31,WNW,294,9.0,16.0,85,0.00,,,0.00,Wunderground v.1.15,2013-11-12 18:00:00,
2013-11-12 13:05:00,27.9,23.1,30.32,West,279,9.0,16.0,82,0.00,,,0.00,Wunderground v.1.15,2013-11-12 18:05:00,
2013-11-12 13:10:00,28.0,22.9,30.32,WNW,284,10.0,16.0,81,0.00,,,0.00,Wunderground v.1.15,2013-11-12 18:10:00,
2013-11-12 13:15:00,27.9,22.2,30.32,NW,316,10.0,16.0,79,0.00,,,0.00,Wunderground v.1.15,2013-11-12 18:15:00,
2013-11-12 13:25:00,28.2,22.8,30.32,West,279,7.0,16.0,80,0.00,,,0.00,Wunderground v.1.15,2013-11-12 18:25:00,
2013-11-12 13:30:00,28.3,22.9,30.32,WNW,282,6.0,16.0,80,0.00,,,0.00,Wunderground v.1.15,2013-11-12 18:30:00,
2013-11-12 13:35:00,28.4,23.3,30.32,West,259,7.0,16.0,81,0.00,,,0.00,Wunderground v.1.15,2013-11-12 18:35:00,
2013-11-12 13:40:00,28.5,23.1,30.32,WNW,284,6.0,6.0,80,0.00,,,0.00,Wunderground v.1.15,2013-11-12 18:40:00,
2013-11-12 13:45:00,28.5,22.8,30.32,WNW,287,7.0,13.0,79,0.00,,,0.00,Wunderground v.1.15,2013-11-12 18:45:00,
2013-11-12 13:50:00,28.3,22.6,30.32,WNW,288,9.0,16.0,79,0.00,,,0.00,Wunderground v.1.15,2013-11-12 18:50:00,
2013-11-12 13:55:00,28.1,22.4,30.32,West,279,10.0,16.0,79,0.00,,,0.00,Wunderground v.1.15,2013-11-12 18:55:00,
2013-11-12 14:05:00,28.0,23.2,30.32,WNW,302,8.0,16.0,82,0.00,,,0.00,Wunderground v.1.15,2013-11-12 19:05:00,
2013-11-12 14:10:00,28.2,23.1,30.32,WNW,295,8.0,16.0,81,0.00,,,0.00,Wunderground v.1.15,2013-11-12 19:10:00,
2013-11-12 14:15:00,28.2,22.8,30.32,NNW,332,6.0,16.0,80,0.00,,,0.00,Wunderground v.1.15,2013-11-12 19:15:00,
2013-11-12 14:20:00,28.3,22.0,30.32,WNW,286,8.0,16.0,77,0.00,,,0.00,Wunderground v.1.15,2013-11-12 19:20:00,
2013-11-12 14:25:00,28.4,21.8,30.33,West,281,10.0,16.0,76,0.00,,,0.00,Wunderground v.1.15,2013-11-12 19:25:00,
2013-11-12 14:30:00,28.5,21.3,30.33,WNW,302,11.0,16.0,74,0.00,,,0.00,Wunderground v.1.15,2013-11-12 19:30:00,
2013-11-12 14:40:00,28.4,19.9,30.33,West,280,12.0,12.0,70,0.00,,,0.00,Wunderground v.1.15,2013-11-12 19:40:00,
2013-11-12 14:45:00,28.5,20.0,30.33,WNW,296,11.0,16.0,70,0.00,,,0.00,Wunderground v.1.15,2013-11-12 19:45:00,
2013-11-12 14:50:00,28.4,19.5,30.33,NW,304,10.0,10.0,69,0.00,,,0.00,Wunderground v.1.15,2013-11-12 19:50:00,
2013-11-12 14:55:00,28.4,19.5,30.33,NW,304,8.0,16.0,69,0.00,,,0.00,Wunderground v.1.15,2013-11-12 19:55:00,
2013-11-12 15:00:00,28.5,20.3,30.33,WNW,302,11.0,16.0,71,0.00,,,0.00,Wunderground v.1.15,2013-11-12 20:00:00,
2013-11-12 15:05:00,28.2,20.0,30.33,West,281,9.0,16.0,71,0.00,,,0.00,Wunderground v.1.15,2013-11-12 20:05:00,
2013-11-12 15:10:00,28.2,20.3,30.33,WNW,282,9.0,9.0,72,0.00,,,0.00,Wunderground v.1.15,2013-11-12 20:10:00,
2013-11-12 15:20:00,28.1,20.2,30.33,WNW,292,9.0,9.0,72,0.00,,,0.00,Wunderground v.1.15,2013-11-12 20:20:00,
2013-11-12 15:25:00,28.1,20.6,30.33,WNW,282,9.0,16.0,73,0.00,,,0.00,Wunderground v.1.15,2013-11-12 20:25:00,
2013-11-12 15:30:00,28.1,20.6,30.33,NW,311,7.0,16.0,73,0.00,,,0.00,Wunderground v.1.15,2013-11-12 20:30:00,
2013-11-12 15:35:00,28.1,20.6,30.34,WNW,292,7.0,16.0,73,0.00,,,0.00,Wunderground v.1.15,2013-11-12 20:35:00,
2013-11-12 15:40:00,28.1,20.9,30.34,WNW,293,7.0,7.0,74,0.00,,,0.00,Wunderground v.1.15,2013-11-12 20:40:00,
2013-11-12 15:45:00,28.1,20.9,30.34,WNW,293,7.0,10.0,74,0.00,,,0.00,Wunderground v.1.15,2013-11-12 20:45:00,
2013-11-12 15:50:00,28.1,19.9,30.34,WNW,284,8.0,16.0,71,0.00,,,0.00,Wunderground v.1.15,2013-11-12 20:50:00,
2013-11-12 16:00:00,28.2,19.7,30.35,NW,309,9.0,16.0,70,0.00,,,0.00,Wunderground v.1.15,2013-11-12 21:00:00,
2013-11-12 16:05:00,28.0,19.5,30.35,West,279,10.0,16.0,70,0.00,,,0.00,Wunderground v.1.15,2013-11-12 21:05:00,
2013-11-12 16:10:00,27.9,19.7,30.35,WNW,288,9.0,9.0,71,0.00,,,0.00,Wunderground v.1.15,2013-11-12 21:10:00,
2013-11-12 16:15:00,27.9,20.0,30.35,NW,304,8.0,11.0,72,0.00,,,0.00,Wunderground v.1.15,2013-11-12 21:15:00,
2013-11-12 16:20:00,27.8,19.9,30.35,WNW,285,8.0,8.0,72,0.00,,,0.00,Wunderground v.1.15,2013-11-12 21:20:00,
2013-11-12 16:25:00,27.7,20.2,30.35,WNW,298,6.0,16.0,73,0.00,,,0.00,Wunderground v.1.15,2013-11-12 21:25:00,
2013-11-12 16:35:00,27.6,19.8,30.35,WNW,294,7.0,16.0,72,0.00,,,0.00,Wunderground v.1.15,2013-11-12 21:35:00,
2013-11-12 16:45:00,27.3,18.1,30.35,WNW,284,10.0,16.0,68,0.00,,,0.00,Wunderground v.1.15,2013-11-12 21:45:00,
2013-11-12 16:50:00,27.2,18.4,30.35,WNW,284,10.0,10.0,69,0.00,,,0.00,Wunderground v.1.15,2013-11-12 21:50:00,
2013-11-12 16:55:00,27.1,18.3,30.35,WNW,284,9.0,16.0,69,0.00,,,0.00,Wunderground v.1.15,2013-11-12 21:55:00,
2013-11-12 17:00:00,26.9,17.7,30.35,WNW,294,9.0,9.0,68,0.00,,,0.00,Wunderground v.1.15,2013-11-12 22:00:00,
2013-11-12 17:05:00,26.9,17.7,30.35,NW,306,8.0,16.0,68,0.00,,,0.00,Wunderground v.1.15,2013-11-12 22:05:00,
2013-11-12 17:10:00,26.6,17.8,30.35,WNW,282,7.0,7.0,69,0.00,,,0.00,Wunderground v.1.15,2013-11-12 22:10:00,
2013-11-12 17:20:00,26.4,17.6,30.35,NW,315,7.0,7.0,69,0.00,,,0.00,Wunderground v.1.15,2013-11-12 22:20:00,
2013-11-12 17:25:00,26.3,17.5,30.35,WNW,283,7.0,16.0,69,0.00,,,0.00,Wunderground v.1.15,2013-11-12 22:25:00,
2013-11-12 17:30:00,26.0,17.2,30.35,West,279,5.0,16.0,69,0.00,,,0.00,Wunderground v.1.15,2013-11-12 22:30:00,
2013-11-12 17:35:00,26.0,17.2,30.35,NW,309,4.0,16.0,69,0.00,,,0.00,Wunderground v.1.15,2013-11-12 22:35:00,
2013-11-12 17:40:00,25.8,17.0,30.35,WNW,298,5.0,16.0,69,0.00,,,0.00,Wunderground v.1.15,2013-11-12 22:40:00,
2013-11-12 17:45:00,26.0,17.2,30.35,WNW,288,6.0,16.0,69,0.00,,,0.00,Wunderground v.1.15,2013-11-12 22:45:00,
2013-11-12 17:50:00,25.7,16.9,30.35,WNW,294,5.0,5.0,69,0.00,,,0.00,Wunderground v.1.15,2013-11-12 22:50:00,
2013-11-12 18:00:00,25.2,17.1,30.36,NW,306,1.0,16.0,71,0.00,,,0.00,Wunderground v.1.15,2013-11-12 23:00:00,
2013-11-12 18:05:00,25.1,17.0,30.36,NW,317,1.0,16.0,71,0.00,,,0.00,Wunderground v.1.15,2013-11-12 23:05:00,
2013-11-12 18:10:00,25.0,16.9,30.36,WNW,293,2.0,16.0,71,0.00,,,0.00,Wunderground v.1.15,2013-11-12 23:10:00,
2013-11-12 18:15:00,24.9,17.1,30.36,WNW,292,2.0,16.0,72,0.00,,,0.00,Wunderground v.1.15,2013-11-12 23:15:00,
2013-11-12 18:20:00,24.7,17.0,30.36,WNW,292,1.0,1.0,72,0.00,,,0.00,Wunderground v.1.15,2013-11-12 23:20:00,
2013-11-12 18:25:00,24.7,17.0,30.36,WNW,290,1.0,2.0,72,0.00,,,0.00,Wunderground v.1.15,2013-11-12 23:25:00,
2013-11-12 18:35:00,24.6,17.2,30.37,West,277,2.0,16.0,73,0.00,,,0.00,Wunderground v.1.15,2013-11-12 23:35:00,
2013-11-12 18:40:00,24.6,17.2,30.36,West,277,2.0,16.0,73,0.00,,,0.00,Wunderground v.1.15,2013-11-12 23:40:00,
2013-11-12 18:45:00,24.4,17.0,30.37,West,277,2.0,16.0,73,0.00,,,0.00,Wunderground v.1.15,2013-11-12 23:45:00,
2013-11-12 18:50:00,24.3,17.2,30.37,West,277,2.0,16.0,74,0.00,,,0.00,Wunderground v.1.15,2013-11-12 23:50:00,
2013-11-12 18:55:00,24.2,17.1,30.37,West,277,1.0,16.0,74,0.00,,,0.00,Wunderground v.1.15,2013-11-12 23:55:00,
2013-11-12 19:00:00,24.1,17.3,30.37,West,277,0.0,16.0,75,0.00,,,0.00,Wunderground v.1.15,2013-11-13 00:00:00,
2013-11-12 19:05:00,24.1,17.0,30.37,West,277,0.0,16.0,74,0.00,,,0.00,Wunderground v.1.15,2013-11-13 00:05:00,
2013-11-12 19:15:00,24.2,17.1,30.37,WNW,303,2.0,16.0,74,0.00,,,0.00,Wunderground v.1.15,2013-11-13 00:15:00,
2013-11-12 19:20:00,24.0,16.9,30.37,WNW,299,2.0,2.0,74,0.00,,,0.00,Wunderground v.1.15,2013-11-13 00:20:00,
2013-11-12 19:25:00,24.0,16.9,30.37,WNW,299,1.0,16.0,74,0.00,,,0.00,Wunderground v.1.15,2013-11-13 00:25:00,
2013-11-12 19:35:00,23.6,17.1,30.37,WNW,299,0.0,16.0,76,0.00,,,0.00,Wunderground v.1.15,2013-11-13 00:35:00,
2013-11-12 19:40:00,23.6,17.1,30.37,WNW,299,0.0,16.0,76,0.00,,,0.00,Wunderground v.1.15,2013-11-13 00:40:00,
2013-11-12 19:45:00,23.7,17.2,30.37,WNW,299,0.0,16.0,76,0.00,,,0.00,Wunderground v.1.15,2013-11-13 00:45:00,
2013-11-12 19:50:00,23.7,17.2,30.38,WNW,299,0.0,16.0,76,0.00,,,0.00,Wunderground v.1.15,2013-11-13 00:50:00,
2013-11-12 19:55:00,23.7,17.2,30.38,West,279,1.0,16.0,76,0.00,,,0.00,Wunderground v.1.15,2013-11-13 00:55:00,
2013-11-12 20:05:00,23.9,16.8,30.38,West,264,3.0,16.0,74,0.00,,,0.00,Wunderground v.1.15,2013-11-13 01:05:00,
2013-11-12 20:10:00,24.3,16.9,30.38,West,279,3.0,3.0,73,0.00,,,0.00,Wunderground v.1.15,2013-11-13 01:10:00,
2013-11-12 20:15:00,24.1,16.7,30.38,West,279,2.0,16.0,73,0.00,,,0.00,Wunderground v.1.15,2013-11-13 01:15:00,
2013-11-12 20:20:00,24.2,16.5,30.38,West,279,2.0,16.0,72,0.00,,,0.00,Wunderground v.1.15,2013-11-13 01:20:00,
2013-11-12 20:25:00,24.2,16.8,30.38,West,278,2.0,16.0,73,0.00,,,0.00,Wunderground v.1.15,2013-11-13 01:25:00,
2013-11-12 20:30:00,24.2,17.1,30.38,WNW,284,2.0,2.0,74,0.00,,,0.00,Wunderground v.1.15,2013-11-13 01:30:00,
2013-11-12 20:40:00,24.9,17.5,30.38,West,264,4.0,16.0,73,0.00,,,0.00,Wunderground v.1.15,2013-11-13 01:40:00,
2013-11-12 20:45:00,25.0,17.6,30.38,West,278,4.0,16.0,73,0.00,,,0.00,Wunderground v.1.15,2013-11-13 01:45:00,
2013-11-12 20:50:00,25.0,17.6,30.38,West,279,5.0,16.0,73,0.00,,,0.00,Wunderground v.1.15,2013-11-13 01:50:00,
2013-11-12 20:55:00,25.1,17.3,30.38,NW,306,6.0,16.0,72,0.00,,,0.00,Wunderground v.1.15,2013-11-13 01:55:00,
2013-11-12 21:00:00,25.4,17.6,30.38,West,271,7.0,16.0,72,0.00,,,0.00,Wunderground v.1.15,2013-11-13 02:00:00,
2013-11-12 21:10:00,25.6,17.8,30.38,West,281,8.0,8.0,72,0.00,,,0.00,Wunderground v.1.15,2013-11-13 02:10:00,
2013-11-12 21:15:00,25.5,18.0,30.38,West,269,8.0,9.0,73,0.00,,,0.00,Wunderground v.1.15,2013-11-13 02:15:00,
2013-11-12 21:20:00,25.5,18.4,30.38,West,259,8.0,16.0,74,0.00,,,0.00,Wunderground v.1.15,2013-11-13 02:20:00,
2013-11-12 21:25:00,25.4,18.3,30.38,West,272,8.0,16.0,74,0.00,,,0.00,Wunderground v.1.15,2013-11-13 02:25:00,
2013-11-12 21:30:00,25.4,17.9,30.39,WNW,292,7.0,7.0,73,0.00,,,0.00,Wunderground v.1.15,2013-11-13 02:30:00,
2013-11-12 21:35:00,25.5,17.7,30.39,WNW,292,7.0,10.0,72,0.00,,,0.00,Wunderground v.1.15,2013-11-13 02:35:00,
2013-11-12 21:45:00,25.3,18.5,30.39,WNW,284,7.0,16.0,75,0.00,,,0.00,Wunderground v.1.15,2013-11-13 02:45:00,
2013-11-12 21:55:00,25.1,18.0,30.39,West,277,7.0,16.0,74,0.00,,,0.00,Wunderground v.1.15,2013-11-13 02:55:00,
2013-11-12 22:00:00,24.9,17.8,30.39,WNW,303,7.0,7.0,74,0.00,,,0.00,Wunderground v.1.15,2013-11-13 03:00:00,
2013-11-12 22:05:00,24.8,18.0,30.39,WNW,303,6.0,16.0,75,0.00,,,0.00,Wunderground v.1.15,2013-11-13 03:05:00,
2013-11-12 22:10:00,24.8,18.0,30.39,WNW,282,5.0,16.0,75,0.00,,,0.00,Wunderground v.1.15,2013-11-13 03:10:00,
2013-11-12 22:20:00,25.0,17.9,30.39,WNW,286,6.0,6.0,74,0.00,,,0.00,Wunderground v.1.15,2013-11-13 03:20:00,
2013-11-12 22:25:00,25.1,17.7,30.39,West,277,6.0,10.0,73,0.00,,,0.00,Wunderground v.1.15,2013-11-13 03:25:00,
2013-11-12 22:30:00,25.1,17.7,30.40,West,278,7.0,7.0,73,0.00,,,0.00,Wunderground v.1.15,2013-11-13 03:30:00,
2013-11-12 22:35:00,25.2,17.8,30.39,West,274,7.0,16.0,73,0.00,,,0.00,Wunderground v.1.15,2013-11-13 03:35:00,
2013-11-12 22:40:00,25.2,17.4,30.39,WSW,255,7.0,7.0,72,0.00,,,0.00,Wunderground v.1.15,2013-11-13 03:40:00,
2013-11-12 22:45:00,24.9,17.5,30.39,WNW,283,6.0,16.0,73,0.00,,,0.00,Wunderground v.1.15,2013-11-13 03:45:00,
2013-11-12 22:55:00,25.0,17.9,30.40,West,263,6.0,16.0,74,0.00,,,0.00,Wunderground v.1.15,2013-11-13 03:55:00,
2013-11-12 23:00:00,25.0,18.2,30.40,West,265,6.0,16.0,75,0.00,,,0.00,Wunderground v.1.15,2013-11-13 04:00:00,
2013-11-12 23:05:00,24.9,18.1,30.40,West,269,7.0,16.0,75,0.00,,,0.00,Wunderground v.1.15,2013-11-13 04:05:00,
2013-11-12 23:10:00,24.8,18.3,30.40,WSW,247,8.0,16.0,76,0.00,,,0.00,Wunderground v.1.15,2013-11-13 04:10:00,
2013-11-12 23:15:00,24.8,18.3,30.40,West,274,8.0,16.0,76,0.00,,,0.00,Wunderground v.1.15,2013-11-13 04:15:00,
2013-11-12 23:20:00,24.8,18.3,30.40,WNW,299,8.0,16.0,76,0.00,,,0.00,Wunderground v.1.15,2013-11-13 04:20:00,
2013-11-12 23:25:00,24.7,18.5,30.40,West,277,7.0,16.0,77,0.00,,,0.00,Wunderground v.1.15,2013-11-13 04:25:00,
2013-11-12 23:35:00,24.2,18.6,30.40,West,277,6.0,16.0,79,0.00,,,0.00,Wunderground v.1.15,2013-11-13 04:35:00,
2013-11-12 23:40:00,24.4,18.8,30.40,WNW,287,6.0,6.0,79,0.00,,,0.00,Wunderground v.1.15,2013-11-13 04:40:00,
2013-11-12 23:45:00,24.3,18.7,30.40,West,264,5.0,16.0,79,0.00,,,0.00,Wunderground v.1.15,2013-11-13 04:45:00,
2013-11-12 23:50:00,24.4,18.5,30.40,WNW,285,6.0,16.0,78,0.00,,,0.00,Wunderground v.1.15,2013-11-13 04:50:00,
2013-11-12 23:55:00,24.4,18.8,30.40,WNW,286,7.0,16.0,79,0.00,,,0.00,Wunderground v.1.15,2013-11-13 04:55:00,